Home > Weather > Sapporo > Past weeks

Flag for Japan Past Weather in Sapporo, Japan — Yesterday and Last 2 Weeks

Now
72 °F

Mild.


Feels Like: 76 °F
Forecast: 54 / 77 °F
Wind: 13 mph from North

Location: Sapporo

Current Time: Jun 28, 2016 at 4:50:24 PM

Latest Report: Jun 28, 2016 at 4:00 PM


Visibility: N/A

Pressure: 29.90 "Hg

Humidity: 60%

Dew Point: 57 °F

Location of SapporoLocation

Past Weather in Sapporo — Graph

°F

Sapporo Temperature Yesterday

Maximum temperature yesterday: 69 °F (at 1:00 PM)
Minimum temperature yesterday: 56 °F (at 12:00 AM)
Average temperature yesterday: 62 °F

High & Low Weather Summary for the Past Weeks

 TemperatureHumidityPressure
High77 °F (Jun 28, 2:00 PM)95% (Jun 18, 2:00 AM)30.02 "Hg (Jun 18, 2:00 AM)
Low55 °F (Jun 18, 9:00 PM)41% (Jun 28, 1:00 PM)29.35 "Hg (Jun 25, 1:00 PM)
Average63 °F76%29.76 "Hg
* Reported Jun 13 3:00 PM — Jun 28 3:00 PM, Sapporo, Weather by CustomWeather, © 2016

Note: Actual official high and low records may vary slightly from our data, if they occured in-between our weather recording intervals... More about our weather records

Advertising

Sapporo Weather History for the Previous 24 Hours

Scroll right to see more
 ConditionsComfort  
Time TempWeatherWind HumidityBarometerVisibility
3:00 PM
Tue, Jun 28
74 °FPassing clouds.9 mph55%29.90 "Hg12 mi
2:00 PM77 °FWarm.9 mph49%29.89 "HgN/A
1:00 PM77 °FWarm.5 mph41%29.90 "HgN/A
12:00 PM76 °FScattered clouds.5 mph44%29.92 "Hg12 mi
11:00 AM74 °FMild.5 mph47%29.93 "HgN/A
10:00 AM72 °FMild.2 mph53%29.94 "HgN/A
9:00 AM69 °FOvercast.2 mph63%29.96 "Hg12 mi
8:00 AM64 °FMild.3 mph71%29.96 "HgN/A
7:00 AM62 °FCool.2 mph79%29.97 "HgN/A
6:00 AM60 °FScattered clouds.2 mph76%29.97 "Hg12 mi
5:00 AM59 °FCool.3 mph80%29.97 "HgN/A
4:00 AM59 °FCool.1 mph82%29.97 "HgN/A
3:00 AM59 °FPartly sunny.3 mph85%29.96 "Hg12 mi
2:00 AM61 °FCool.5 mph82%29.96 "HgN/A
1:00 AM61 °FCool.5 mph82%29.95 "HgN/A
12:00 AM61 °FCool.2 mph82%29.96 "HgN/A
11:00 PM
Mon, Jun 27
61 °FCool.2 mph81%29.98 "HgN/A
10:00 PM61 °FCool.3 mph81%29.99 "HgN/A
9:00 PM61 °FPassing clouds.2 mph80%29.98 "Hg12 mi
8:00 PM62 °FCool.3 mph79%29.98 "HgN/A
7:00 PM62 °FCool.7 mph76%29.98 "HgN/A
6:00 PM64 °FPassing clouds.8 mph69%29.96 "Hg12 mi
5:00 PM65 °FMild.5 mph68%29.94 "HgN/A
4:00 PM64 °FMild.12 mph66%29.94 "HgN/A
Weather by CustomWeather, © 2016

See weather overviewHow to use our weather pages